Weather in Dzuarikau

Russia / Republic of North Ossetia — Alania     43°01′20″N   44°24′43″E
temp.,
°C
wind,
m/s
gust,
m/s
humid.,
%
clouds,
%
prec.,
mm/h
press.,
hPa
HPBL,
m
9 march, tue
tue900:00−4sse117342 0.0 101945
03:00−5s116621 0.0 101932
06:00−5s116127 0.0 101934
09:00−1ene225813 0.0 1018406
12:00+2nne22540 0.0 1016813
15:00+3nne215013 0.1 10151083
18:000nnw116018 0.0 1018117
21:00−2sw226047 0.0 102172
10 march, wed
wed1000:00−3ssw1291100 1.3 1022111
03:00−4s119199 2.1 102480
06:00−4s2287100 0.4 102591
09:00−2n228389 0.4 1024432
12:00−2nne349398 0.4 1022359
15:00−1nne238699 1.6 1021478
18:00−3ne2385100 0.6 1021277
21:00−4ene249199 0.8 1022245
11 march, thu
thu1100:00−4ne249196 0.1 1020238
03:00−4ne139098 0.3 1019250
06:00−5nne1290100 0.1 1018199
09:00−4nne2386100 0.3 1017401
12:00−3ne3483100 0.5 1015570
15:00−4ne4690100 1.9 1014588
18:00−6ne3689100 1.1 1014526
21:00−8ne2492100 1.8 1016345
12 march, fri
fri1200:00−9ene2491100 0.6 1015353
03:00−9nne2394100 1.7 1016262
06:00−10ne2394100 1.4 1018300
09:00−9nne2391100 2.4 1020405
12:00−8ne3489100 0.9 1021536
15:00−8ne3492100 2.2 1022480
18:00−9ene3494100 1.0 1025359
21:00−10ne1192100 1.6 102883
13 march, sat
sat1300:00−11sw0193100 0.2 103097
03:00−13sw018892 0.2 103051
06:00−13wnw018866 0.0 103156
09:00−8nne118568 0.1 1031234
12:00−5n228578 0.0 1029416
15:00−4n218086 0.1 1027453
18:00−6n119245 0.1 102857
21:00−8sse018535 0.1 102944